Simultaneous Nadir Overpasses (SNOs) Predictions

Prediction of SNOs between GOES-16 and METOP-C Satellite Orbit:

Table of predicted SNOs for the next 14.0 days since TLE Epoch: 9/5/2020
Index Date Time (GOES-16) GOES-16 Lat,Lon METOP-C Lat,Lon Distance(km) Time Diff (sec)
1 09/06/2020 02:37:08 -0.00, -75.17 -0.21, -76.07 103.39 80
2 09/07/2020 02:13:48 0.00, -75.16 0.93, -71.08 465.40 80
3 09/08/2020 14:35:18 0.01, -75.18 0.13, -75.63 52.29 80
4 09/11/2020 02:33:38 -0.01, -75.15 -0.02, -75.24 9.17 80
5 09/13/2020 14:29:08 0.02, -75.17 -0.07, -74.79 42.85 80
6 09/15/2020 02:50:49 -0.02, -75.15 -0.96, -79.39 482.43 80
7 09/16/2020 02:27:28 -0.02, -75.16 0.13, -74.39 87.07 80
8 09/17/2020 14:48:58 0.02, -75.18 0.87, -78.95 429.35 80
9 09/18/2020 14:25:39 0.02, -75.19 -0.27, -73.96 140.49 80
